Regional Weather Roundup
Issued by NWS Wakefield, VA

Home | Current Version | Previous Version | Graphics & Text | Print | Product List | Glossary On
Versions: 1 2 3 4 5 6 7 8 9 10 11 12 13 14 15 16 17 18 19 20 21 22 23 24 25 26 27 28 29 30 31 32 33 34 35 36 37 38 39 40 41 42 43 44 45 46 47 48 49 50
000
ASUS41 KAKQ 011815
RWRAKQ

REGIONAL WEATHER ROUNDUP
NATIONAL WEATHER SERVICE WAKEFIELD VA
200 PM EDT WED JUL 01 2015

Note: "fair" indicates few or no clouds below 12,000 feet with no
significant weather and/or obstructions to visibility. * = Denotes
station may not report precipitation (e.g., rain,snow,etc.),
thunder or fog.

VAZ042-051-052>054-056-011900-
NORTHERN VIRGINIA

CITY           SKY/WX    TMP DP  RH WIND       PRES   REMARKS
WASH NATIONAL  MOSUNNY   85  63  47 SW10      29.86F
DULLES         PTSUNNY   83  63  50 SW8G16    29.87F
FORT BELVOIR   NOT AVBL
QUANTICO       PTSUNNY   84  63  49 W8        29.88F
FREDERICKSBRG* SUNNY     87  66  48 SW8       29.87F
STAFFORD*      SUNNY     82  63  53 SW7       29.92S
WARRENTON      SUNNY     84  68  57 SW6       29.87F
CULPEPER*      SUNNY     82  65  56 S8        29.88F
MANASSAS*      MOSUNNY   82  63  51 CALM      29.87F
LEESBURG*      MOSUNNY   82  64  54 SW7       29.88S
WINCHESTER     CLOUDY    82  63  51 SW6       29.88S
FRONT ROYAL*   FAIR      81  64  57 S5        29.87F
LURAY*         FAIR      84  64  51 S6        29.89S
$$

VAZ048-049-060>072-079>083-011900-
CENTRAL AND SOUTH CENTRAL VIRGINIA

CITY           SKY/WX    TMP DP  RH WIND       PRES   REMARKS
RICHMOND       CLOUDY    86  63  45 SW9       29.90F
CHESTERFIELD*  FAIR      84  61  45 SW8       29.92F
PETERSBURG*    SUNNY     86  71  60 S5        29.91F
HANOVER        SUNNY     84  64  50 W9        29.91F
TAPPAHANNOCK*  SUNNY     85  62  45 SW9       29.89F
QUINTON*       FAIR      83  66  55 S7        29.90F
CHARLOTTSVILLE MOSUNNY   83  63  50 SW8       29.90F
GORDONSVILLE*  FAIR      82  66  57 SW10      29.89F
ORANGE*        MOSUNNY   86  63  45 SW10      29.90F
LOUISA*        SUNNY     82  66  57 SW7       29.90S
BUMPASS*       FAIR      82  66  59 W5        29.90S
FARMVILLE*     MOSUNNY   84  64  50 W6        29.91F
CREWE*         FAIR      83  64  51 CALM      29.92F
FORT PICKETT*  FAIR      83  66  56 W9        29.93F
CHASE CITY*    FAIR      85  69  58 SW5       29.94F
CLARKSVILLE*   FAIR      82  68  61 W7        29.93F
SOUTH HILL*    SUNNY     82  66  57 SW10      29.99F
LAWRENCEVILLE* NOT AVBL
EMPORIA*         N/A     82  64  54 S3        29.94F
$$

VAZ088>098-011900-
SOUTHEAST VIRGINIA

CITY           SKY/WX    TMP DP  RH WIND       PRES   REMARKS
NORFOLK        SUNNY     86  62  44 W8        29.90F
VIRGINIA BEACH PTSUNNY   88  66  48 SW13      29.89F
NORFOLK NAVAL  SUNNY     85  66  53 SW7       29.91F
WEST POINT*    SUNNY     87  64  46 SW6       29.90F
SALUDA*        FAIR      83  67  59 SW7       29.88F
NEWPORT NEWS   SUNNY     83  69  62 SW14      29.90F
LANGLEY AFB    MOSUNNY   84  70  62 W13       29.89F
FORT EUSTIS    NOT AVBL
WILLIAMSBURG*  SUNNY     90  70  51 W10       29.91F HX  95
HR EXEC AP*    FAIR      84  70  61 SW8       29.92F
FRANKLIN*      SUNNY     83  68  60 W7        29.92F
WAKEFIELD      SUNNY     85  66  53 SW5       29.91F
$$

VAZ020-022-025-037-045-011900-
WEST CENTRAL AND SOUTHWEST VIRGINIA

CITY           SKY/WX    TMP DP  RH WIND       PRES   REMARKS
STAUNTON*      MOSUNNY   83  65  53 SW15      29.93F
WAYNESBORO*    MOCLDY    78  64  61 SW10G18   29.95S
HOT SPRINGS VA PTSUNNY   72  61  69 W12       30.04S
LYNCHBURG      MOSUNNY   81  62  52 W5        29.95F
DANVILLE       MOSUNNY   84  66  54 SW6       29.95F
SOUTH BOSTON*  MOCLDY    83  68  59 MISG      29.94F
MARTINSVILLE   MOSUNNY   85  63  46 SW6       29.98F
ROANOKE        MOSUNNY   81  62  52 VRB6      29.97F
BLACKSBURG     PTSUNNY   78  63  60 W6        30.04S
DUBLIN*        MOSUNNY   80  63  56 NW8       30.02F
MARION*        CLOUDY    76  64  67 SW8       30.06F
HILLSVILLE*    PTSUNNY   76  60  59 W7G18     30.04F
RICHLANDS*     MOCLDY    75  65  71 W8        30.04F
WISE*          PTSUNNY   73  63  68 W5        30.06S
ABINGDON*      PTSUNNY   78  66  65 W13       30.03F
$$

MDZ021>025-VAZ099-100-011900-
SOUTHERN MARYLAND AND THE DELMARVA PENINSULA

CITY           SKY/WX    TMP DP  RH WIND       PRES   REMARKS
PATUXENT RIVER MOSUNNY   83  66  56 VRB7      29.87F
BAY BRIDGE APT   N/A     82  63  51 SW8       29.86F
LEONARDTOWN    SUNNY     81  64  57 SW8       29.89F
DOVER          NOT AVBL
GEORGETOWN     SUNNY     84  65  52 SW13      29.86F
EASTON         SUNNY     84  66  54 W9        29.90F
CAMBRIDGE      SUNNY     82  63  51 S5        29.87S
SALISBURY      SUNNY     84  65  52 W8G20     29.87S
OCEAN CITY     MOSUNNY   85  67  54 VRB6G20   29.86F
WALLOPS ISLAND MOSUNNY   84  69  60 W10       29.88F
ACCOMACK*      SUNNY     82  70  65 W9        29.89F
$$

NCZ012>017-030>032-011900-
NORTH CENTRAL AND EASTERN NORTH CAROLINA

CITY           SKY/WX    TMP DP  RH WIND       PRES   REMARKS
ROANOKE RAPIDS FAIR      82  64  54 W8        29.94F
RALEIGH        PTSUNNY   86  69  56 VRB7      29.96F
ELIZABETH CITY SUNNY     84  67  56 SW10      29.92F
AHOSKIE*       SUNNY     82  68  62 CALM      29.93F
EDENTON*         N/A     84  70  61 SW8       29.94F
CURRITUCK*     SUNNY     86  63  46 W10       29.92F
KILL DEVIL HLS SUNNY     88  69  54 NW6       29.92F
MANTEO         SUNNY     85  69  57 W7        29.93F
CAPE HATTERAS  SUNNY     82  73  74 SW16G23   29.96F
TARBORO*         N/A     88  64  45 CALM      29.95F
GOLDSBORO      MOSUNNY   84  70  63 VRB5      29.94F
WASHINGTON     SUNNY     84  69  59 SW6       29.95F
GREENVILLE     SUNNY     86  68  54 SW3       29.96F
NEW BERN       MOSUNNY   86  72  62 SW10      29.96F
WILMINGTON     SUNNY     86  73  65 W9        29.97F
$$

VAZ048-011900-
ELSEWHERE

CITY           SKY/WX    TMP DP  RH WIND       PRES   REMARKS
HARRISBURG PA  MOSUNNY   80  60  50 W17G25    29.82F
BALTIMORE      MOSUNNY   83  64  52 W10G17    29.84F
ANNAPOLIS      PTSUNNY   82  64  54 SW7       29.85F
ANDREWS AFB    SUNNY     83  71  68 SW8       29.86F
PHILADELPHIA   MOSUNNY   84  64  50 SW14      29.82F
HENDERSON NC   SUNNY     83  64  52 SW9       29.95F
GREENSBORO     CLOUDY    85  61  44 W9        29.97S
ROCKY MOUNT    MOSUNNY   88  67  49 SW8       29.94F
$$

VAZ100-011900-
MARINE

STATION/POSITION TIME  TEMP    WIND        PRES    WAVE   SWELL
                       AIR SEA DIR/SP/G            HT/PER HT/PER
                 (UTC) (F)     (DEG/KT/KT) (MB)    (FT/S) (FT/S)
BRANDYWINE LGT   1700   77 74  240/  5/  6 1011.2F
CAPE MAY NJ      1700   78 78  230/  5/  6 1010.8F
LEWES DE         1700   81 71  270/ 10/ 12 1010.9F
15NM E FENWICK I 1750   74 73              1011.2F   4/ 8
OCEAN-CITY-INLET 1700   77 73  200/ 11/ 13 1011.3S
WACHAPREAGUE VA  1700   83 82  250/  1/  8 1012.5S
GOOSES REEF MD   1800   78 78  170/ 10/ 12 1012.4F
COVE POINT MD    1700   76     180/  9/ 11 1012.5F
SOLOMONS ISLAND  1700      81                N/A
BISHOPS HEAD MD  1700   77     240/  7/  8 1011.9F
PINEY POINT MD   1712          130/  3/  3   N/A
CAMBRIDGE MD     1700   81 79  230/  4/ 10 1011.4F
LEWISETTA VA     1700   81 79  240/  8/  9 1011.7F
RAPPAHANNOCK LGT 1700          200/ 11/ 12 1013.2R
STINGRAY PT      1800   81 82  230/  8/ 10 1012.0F   0
YORK RVR RNG VA  1700   79     280/  9/ 10 1012.3S
YORKTOWN VA      1700   80 79  240/ 10/ 14 1012.5F
JAMESTOWN VA     1800   82 83  270/  8/ 12   N/A
DOMINION TERM VA 1700   80     230/  9/ 11 1013.0R
KIPTOPEKE VA     1700      83  240/ 10/ 12   N/A
CHES BAY BRIDGE  1700   79 78  260/  8/ 10 1012.6F
CAPE HENRY VA    1700   83     210/  7/ 10 1011.4S
CHESAPEAKE LGHT  1700   79     220/  6/  6 1013.9R
WILLOUBY STN VA  1700   79     240/ 12/ 13 1013.8F
CAPE HENRY BUOY  1728      78                N/A     3/ 9
1ST LANDING BUOY 1800      79              1012.3F   1/ 4
CAPE CHARLES BUO 1726      74                N/A     3/ 8   2/ 8
OFFSHORE WE BUOY 1711      78                N/A     4/ 8   3/ 8
64NM E OF VA BCH 1750   77 77  240/ 14/ 16 1012.8F   5/ 7   3/ 7
DUCK PIER NC     1700   80 59  250/ 11/ 15 1012.9F
44100 DUCK FRF   1724      77                N/A     3/ 8
44056 DUCK FRF   1711      71                N/A     2/ 8
OREGON INLET NC  1700   81 82  200/ 14/ 17 1013.7F
HATTERAS NC      1700   81 81  220/ 10/ 17 1014.4F
DIAMOND SHLS NC  1750   80 83  240/ 19/ 21 1014.4F   5/ 6   3/ 8
CAPE LOOKOUT NC  1800   81     220/ 12/ 18 1014.6F
$$



USA.gov is the U.S. government's official web portal to all federal, state and local government web resources and services.